Home > Weather > Victoria > Past weeks

Flag for U.S.A. Weather for the Past 2 Weeks in Victoria, Texas, U.S.A.

Now
74 °F

Sunny.


Feels Like: 77 °F
Forecast: 48 / 80 °F
Wind: 12 mph from Southwest

Location: Victoria Regional Airport

Current Time: Feb 11, 2016 at 12:23:06 PM

Latest Report: Feb 11, 2016 at 11:51 AM


Visibility: 10 mi

Pressure: 30.19 "Hg

Humidity: 40%

Dew point: 48 °F

Location of VictoriaLocation

Historic Weather in Victoria — Graph

°F

Victoria Temperature Yesterday

Maximum temperature yesterday: 75 °F (at 2:51 PM)
Minimum temperature yesterday: 37 °F (at 4:51 AM)
Average temperature yesterday: 55 °F

High & Low Weather Summary for the Past Weeks

 TemperatureHumidityPressure
High81 °F (Jan 31, 3:51 PM)100% (Jan 30, 6:51 AM)30.51 "Hg (Jan 30, 6:51 AM)
Low31 °F (Jan 28, 6:51 AM)17% (Feb 8, 1:51 PM)29.56 "Hg (Feb 2, 12:51 AM)
Average55 °F64%30.15 "Hg
* Reported Jan 27 10:51 AM — Feb 11 10:51 AM, Victoria, Weather by CustomWeather, © 2016

Note: Actual official high and low records may vary slightly from our data, if they occured in-between our weather recording intervals... More about our weather records

Advertising

Victoria Weather History for the Previous 24 Hours

 ConditionsComfort  
Time TempWeatherWind HumidityBarometerVisibility
10:51 AM
Thu, Feb 11
70 °FSunny.16 mph47%30.21 "Hg10 mi
9:51 AM65 °FSunny.17 mph63%30.21 "Hg10 mi
8:51 AM59 °FSunny.13 mph72%30.21 "Hg10 mi
7:51 AM52 °FSunny.7 mph83%30.21 "Hg10 mi
6:51 AM50 °FClear.9 mph86%30.19 "Hg10 mi
5:51 AM52 °FClear.12 mph80%30.19 "Hg10 mi
4:51 AM52 °FClear.10 mph77%30.18 "Hg10 mi
3:51 AM52 °FClear.12 mph77%30.18 "Hg10 mi
2:51 AM51 °FClear.8 mph86%30.18 "Hg10 mi
1:51 AM52 °FClear.7 mph86%30.19 "Hg10 mi
12:51 AM55 °FClear.10 mph83%30.20 "Hg10 mi
11:51 PM
Wed, Feb 10
53 °FClear.8 mph86%30.21 "Hg10 mi
10:51 PM55 °FClear.9 mph80%30.23 "Hg10 mi
9:51 PM57 °FClear.12 mph78%30.24 "Hg10 mi
8:51 PM53 °FClear.9 mph83%30.25 "Hg10 mi
7:51 PM54 °FClear.8 mph83%30.25 "Hg10 mi
6:51 PM57 °FClear.9 mph72%30.25 "Hg10 mi
5:51 PM64 °FSunny.12 mph54%30.26 "Hg10 mi
4:51 PM70 °FSunny.14 mph41%30.25 "Hg10 mi
3:51 PM73 °FSunny.14 mph33%30.26 "Hg10 mi
2:51 PM75 °FSunny.9 mph22%30.27 "Hg10 mi
1:51 PM72 °FSunny.5 mph25%30.30 "Hg10 mi
12:51 PM71 °FSunny.6 mph30%30.33 "Hg10 mi
Weather by CustomWeather, © 2016

See weather overviewHow to use our weather pages